Home   Weather   Rio Branco   Past weeks

Flag for Brazil Past Weather in Rio Branco, Acre, Brazil — Yesterday and Last 2 Weeks

Now
73 °F

Passing clouds.


Feels Like: 73 °F
Forecast: 68 / 93 °F
Wind: 7 mph from West

Location: Rio Branco Airport

Current Time: Aug 31, 2016 at 10:57:30 PM

Latest Report: Aug 31, 2016 at 10:00 PM


Visibility: N/A

Pressure: 29.98 "Hg

Humidity: 83%

Dew Point: 68 °F

Location of Rio BrancoLocation

Past Weather in Rio Branco — Graph

°F

Rio Branco Temperature Yesterday

Maximum temperature yesterday: 77 °F (at 2:00 AM)
Minimum temperature yesterday: 64 °F (at 7:00 AM)
Average temperature yesterday: 68 °F

High & Low Weather Summary for the Past Weeks

 TemperatureHumidityPressure
High97 °F (Aug 26, 2:00 PM)100% (Aug 21, 5:00 AM)30.18 "Hg (Aug 21, 5:00 AM)
Low61 °F (Aug 22, 3:00 AM)24% (Aug 23, 12:00 PM)29.74 "Hg (Aug 27, 5:00 PM)
Average79 °F64%29.92 "Hg
* Reported Aug 16 9:00 PM — Aug 31 9:00 PM, Rio Branco, Weather by CustomWeather, © 2016

Note: Actual official high and low records may vary slightly from our data, if they occured in-between our weather recording intervals... More about our weather records

Advertising

Rio Branco Weather History for the Previous 24 Hours

Scroll right to see more
 ConditionsComfort  
Time TempWeatherWind HumidityBarometerVisibility
9:00 PM
Wed, Aug 31
73 °FPassing clouds.6 mph83%29.98 "HgN/A
8:00 PM75 °FPassing clouds.7 mph78%29.95 "HgN/A
7:00 PM75 °FPassing clouds.6 mph78%29.95 "HgN/A
6:00 PM77 °FClear.5 mph74%29.92 "Hg10 mi
5:00 PM81 °FBroken clouds.5 mph66%29.89 "HgN/A
4:00 PM82 °FScattered clouds.3 mph55%29.89 "HgN/A
3:00 PM84 °FScattered clouds.2 mph55%29.89 "HgN/A
2:00 PM81 °FBroken clouds.5 mph58%29.92 "HgN/A
1:00 PM79 °FPartly sunny.5 mph61%29.95 "HgN/A
12:00 PM79 °FScattered clouds.5 mph58%29.98 "HgN/A
11:00 AM75 °FSunny.5 mph65%30.01 "Hg10 mi
10:00 AM70 °FScattered clouds.6 mph73%30.04 "HgN/A
9:00 AM68 °FBroken clouds.6 mph78%30.07 "HgN/A
8:00 AM64 °FSunny.8 mph83%30.04 "Hg10 mi
7:00 AM64 °FBroken clouds.5 mph88%30.01 "HgN/A
6:00 AM64 °FPartly sunny.3 mph83%30.01 "HgN/A
5:00 AM63 °FPassing clouds.3 mph94%29.98 "HgN/A
4:00 AM64 °FPassing clouds.5 mph83%29.98 "HgN/A
3:00 AM64 °FPassing clouds.3 mph83%29.98 "HgN/A
2:00 AM64 °FPassing clouds.3 mph83%29.98 "HgN/A
1:00 AM64 °FPassing clouds.3 mph83%29.98 "HgN/A
12:00 AM64 °FPartly cloudy.3 mph83%30.01 "HgN/A
11:00 PM
Tue, Aug 30
64 °FPassing clouds.5 mph83%30.04 "HgN/A
10:00 PM64 °FPartly cloudy.5 mph83%30.04 "HgN/A
Weather by CustomWeather, © 2016

See weather overviewHow to use our weather pages